Regional Weather Roundup
Issued by NWS

Home | Current Version | Previous Version | Text Only | Print | Product List | Glossary Off
Versions: 1 2 3 4 5 6 7 8 9 10 11 12 13 14 15 16 17 18 19 20 21 22 23 24 25 26 27 28 29 30 31 32 33 34 35 36 37 38 39 40 41 42 43 44 45 46 47 48 49 50

331
ASUS43 KDTX 042210
RWRMI
MICHIGAN HOURLY REGIONAL WEATHER ROUNDUP
NATIONAL WEATHER SERVICE DETROIT/PONTIAC MI
600 PM EDT WED MAY 04 2016

NOTE: "FAIR" INDICATES FEW OR NO CLOUDS BELOW 12,000 FEET WITH NO
SIGNIFICANT WEATHER AND/OR OBSTRUCTION TO VISIBILITY.

MIZ047>049-052>055-059>063-066>070-074>076-081>083-042300-
SOUTHEAST LOWER MICHIGAN

CITY           SKY/WX    TMP DP  RH WIND       PRES   REMARKS
ADRIAN         CLOUDY    49  39  68 NW13      29.62R
ALMA           LGT RAIN  46  44  95 N13G21    29.65R
ANN ARBOR      CLOUDY    50  45  83 W8        29.60R
BAD AXE        CLOUDY    59  40  48 S10G16    29.65R
CARO           LGT RAIN  50  47  91 N9        29.65R
DETROIT CITY   RAIN      50  46  86 SE13      29.63R FOG
DETROIT        DRIZZLE   52  48  86 S7        29.61R
FLINT          LGT RAIN  53  46  77 SE8       29.62R
GROSSE ILE     LGT RAIN  52  48  87 CALM      29.61R
HILLSDALE      CLOUDY    45  39  78 NW14      29.62R
HOWELL         CLOUDY    50  48  93 SE5       29.59R

CITY           SKY/WX    TMP DP  RH WIND       PRES   REMARKS
JACKSON        CLOUDY    44  41  89 W10G18    29.61R
LAMBERTVILLE   CLOUDY    52  42  70 W8        29.63R
LANSING        CLOUDY    50  46  86 NE13      29.59R
LAPEER         RAIN      52  45  78 S8        29.64R
MASON          CLOUDY    47  43  88 SW7       29.59R
MONROE         CLOUDY    51  45  78 W8        29.61R
MT. CLEMENS    LGT RAIN  52  50  93 SE13      29.63R
PONTIAC        LGT RAIN  50  47  89 E12       29.60R FOG
PORT HOPE        N/A     49  42  77 SE3       29.65R
PORT HURON     LGT RAIN  57  41  54 SE6       29.64R
TRI CITIES     LGT RAIN  51  47  86 NE14      29.66R FOG
MIDLAND        LGT RAIN  48  47  95 N8        29.66R
TROY           RAIN      51  49  94 E6        29.64R
SAGINAW HB     DRIZZLE   50  46  87 N12G17    29.64R
$$
MIZ043>046-050>051-056>058-064>065-071>073-077>080-042300-
SOUTHWEST LOWER MICHIGAN

CITY           SKY/WX    TMP DP  RH WIND       PRES   REMARKS
BATTLE CREEK   LGT RAIN  42  39  89 NW16      29.64S FOG
BENTON HARBOR  LGT RAIN  39  35  86 NW13G28   29.76R WCI  31
BIG RAPIDS     RAIN      42  38  87 N8G21     29.72R
COLDWATER      CLOUDY    44  40  85 NW18      29.65R
FREMONT        RAIN      41  40  95 N22G28    29.73R
HOLLAND        LGT RAIN N/A N/A N/A NW13G23   29.72R
GRAND RAPIDS   LGT RAIN  43  40  89 N18G28    29.66R
IONIA          CLOUDY    45  43  94 N23G31    29.62R
KALAMAZOO      LGT RAIN  41  37  86 NW13      29.68R FOG
LUDINGTON      CLOUDY    42  35  75 N20G33    29.79R
MARSHALL       CLOUDY    42  40  91 W14G20    29.62R FOG
MOUNT PLEASANT CLOUDY    46  44  93 N14G22      N/A
MUSKEGON       RAIN      42  37  82 N18G25    29.75R
SOUTH HAVEN    MIX PCPN  40  38  94 N15G24    29.74R WCI  31
$$
MIZ016>042-042300-
NORTHERN LOWER MICHIGAN

CITY           SKY/WX    TMP DP  RH WIND       PRES   REMARKS
ALPENA         CLOUDY    47  43  86 N14       29.75R
BEAVER ISLAND  MOSUNNY   48  34  58 N10G21    29.83R
BELLAIRE       CLOUDY    47  37  66 N10G18    29.79R
CADILLAC       LGT RAIN  41  38  91 N10G17    29.73R
CHARLEVOIX     CLOUDY    44  36  75 N14G20    29.83R
FRANKFORT      PTSUNNY   44  36  72 N15G23    29.82R
GAYLORD        LGT RAIN  44  41  89 N5        29.76R
GRAYLING       LGT RAIN  45  43  93 VRB9      29.75R
HARBOR SPRINGS CLOUDY    48  39  72 N12       29.79R
HOUGHTON LAKE  LGT RAIN  45  41  86 N17G25    29.72R FOG
MANISTEE       CLOUDY    43  32  65 N14G25    29.80R
OSCODA         CLOUDY    54  43  65 N13       29.68R
PELLSTON       CLOUDY    48  40  73 N14       29.80R
ROGERS CITY    DRIZZLE   42  40  93 NW12G17   29.78R
TRAVERSE CITY  CLOUDY    46  36  68 N12G20    29.78R
$$
MIZ007>008-015-042300-
EASTERN UPPER MICHIGAN

CITY           SKY/WX    TMP DP  RH WIND       PRES   REMARKS
KINROSS          N/A     45  36  70 NW18      29.80R
MACKINAC ISLAN LGT RAIN  46  37  70 N15G21    29.79R
NEWBERRY       MOSUNNY   44  32  61 N17G23    29.84R
S. S. MARIE    CLOUDY    48  39  71 NW7       29.81R
MUNISING         N/A     39  32  76 N20G29    29.92R WCI  29
$$
MIZ004>006-011>014-085-042300-
CENTRAL UPPER MICHIGAN

CITY           SKY/WX    TMP DP  RH WIND       PRES   REMARKS
MANISTIQUE     MOSUNNY   45  31  59 N17G31    29.85R
ESCANABA         N/A    N/A N/A N/A MISG        N/A
MENOMINEE      PTSUNNY   50  32  50 NE18G24   29.88R
SAWYER-GWINN   CLOUDY    39  30  70 N24       29.93S WCI  28
$$
MIZ001>003-009>011-084-042300-
WESTERN UPPER MICHIGAN

CITY           SKY/WX    TMP DP  RH WIND       PRES   REMARKS
IRON MOUNTAIN  CLOUDY    45  31  58 NW18G28   29.90R
HOUGHTON       MOSUNNY   46  31  55 N17G24    29.95S
COPPER HARBOR    N/A     42  36  79 N14       29.96R
IRONWOOD         N/A     48  30  49 NE8       29.95R
$$

ABBREVIATIONS USED IN REMARKS
   TC - TEMPERATURE IN CELSIUS
  WCI - WIND CHILL INDEX
   HX - HEAT INDEX
  VSB - VISIBILITY





USA.gov is the U.S. government's official web portal to all federal, state and local government web resources and services.